Auburn, CA

1:51 AM PDT on March 27, 2017 (GMT -0700)
Auburn Municipal

Weather History for KAUN - November, 2010

Change the Weather History Date:

Tuesday, November 16, 2010

  Actual Average Record
Temperature  
Mean Temperature 56 °F -  
Max Temperature 66 °F 60 °F 138 °F (2014)
Min Temperature 46 °F 42 °F 30 °F (1958)
Degree Days  
Heating Degree Days 9    
Growing Degree Days 6 (Base 50)    
Moisture  
Dew Point 45 °F    
Average Humidity 66    
Maximum Humidity 93    
Minimum Humidity 48    
Precipitation  
Precipitation 0.00 in - - ()
Sea Level Pressure  
Sea Level Pressure 30.06 in    
Wind  
Wind Speed 4 mph (NNW)    
Max Wind Speed 9 mph    
Max Gust Speed -    
Visibility 10 miles    
Events      
Averages and records for this station are not official NWS values.
T = Trace of Precipitation, MM = Missing Value Source: NWS Daily Summary

Daily Weather History Graph

Daily Weather History Graph

Search for Another Location

Airport or City:

Trip Planner

Search our weather history database for the weather conditions in past years. The results will help you decide how hot, cold, wet, or windy it might be!

Date:

Astronomy

Nov. 16, 2010 Rise Set
Actual Time 6:48 AM PST 4:49 PM PST
Civil Twilight 6:19 AM PST 5:18 PM PST
Nautical Twilight 5:47 AM PST 5:50 PM PST
Astronomical Twilight 5:15 AM PST 6:22 PM PST
Moon 1:56 PM PST (11/16) 1:57 AM PST (11/16)
Length of Visible Light 10h 58m
Length of Day
10h 01m
Waxing Gibbous, 78% of the Moon is Illuminated
Nov 16
Waxing Gibbous
Nov 21
Full
Nov 28
Last Quarter
Dec 5
New
Dec 13
First Quarter

Hourly Weather History & Observations

Time (PST) Temp. Dew Point Humidity Pressure Visibility Wind Dir Wind Speed Gust Speed Precip Events Conditions
12:10 AM 55.4 °F 48.2 °F 77% 30.09 in 10.0 mi ESE 6.9 mph - N/A   Clear
12:30 AM 55.4 °F 48.2 °F 77% 30.09 in 10.0 mi East 9.2 mph - N/A   Clear
12:50 AM 55.4 °F 46.4 °F 72% 30.08 in 10.0 mi East 9.2 mph - N/A   Clear
1:10 AM 53.6 °F 46.4 °F 77% 30.09 in 10.0 mi East 5.8 mph - N/A   Clear
1:50 AM 53.6 °F 44.6 °F 72% 30.09 in 10.0 mi Calm Calm - N/A   Clear
2:10 AM 51.8 °F 44.6 °F 76% 30.09 in 10.0 mi Calm Calm - N/A   Clear
2:30 AM 53.6 °F 44.6 °F 72% 30.09 in 10.0 mi Calm Calm - N/A   Clear
2:50 AM 55.4 °F 42.8 °F 63% 30.09 in 10.0 mi Calm Calm - N/A   Clear
3:10 AM 53.6 °F 42.8 °F 67% 30.09 in 10.0 mi East 4.6 mph - N/A   Clear
3:30 AM 51.8 °F 42.8 °F 71% 30.09 in 10.0 mi Calm Calm - N/A   Clear
3:50 AM 53.6 °F 41.0 °F 62% 30.09 in 10.0 mi Calm Calm - N/A   Clear
4:10 AM 53.6 °F 41.0 °F 62% 30.09 in 10.0 mi East 4.6 mph - N/A   Clear
4:30 AM 51.8 °F 41.0 °F 67% 30.08 in 10.0 mi East 6.9 mph - N/A   Clear
4:50 AM 53.6 °F 41.0 °F 62% 30.08 in 10.0 mi East 8.1 mph - N/A   Clear
5:10 AM 51.8 °F 41.0 °F 67% 30.08 in 10.0 mi ESE 4.6 mph - N/A   Clear
5:30 AM 51.8 °F 39.2 °F 62% 30.08 in 10.0 mi SE 4.6 mph - N/A   Clear
5:50 AM 51.8 °F 39.2 °F 62% 30.08 in 10.0 mi ESE 4.6 mph - N/A   Clear
6:10 AM 51.8 °F 39.2 °F 62% 30.07 in 10.0 mi East 4.6 mph - N/A   Clear
6:30 AM 50.0 °F 39.2 °F 66% 30.08 in 10.0 mi Calm Calm - N/A   Clear
6:50 AM 48.2 °F 39.2 °F 71% 30.08 in 10.0 mi East 4.6 mph - N/A   Clear
7:10 AM 48.2 °F 39.2 °F 71% 30.08 in 10.0 mi Calm Calm - N/A   Clear
7:30 AM 50.0 °F 39.2 °F 66% 30.09 in 10.0 mi ENE 3.5 mph - N/A   Clear
7:50 AM 51.8 °F 41.0 °F 67% 30.10 in 10.0 mi Calm Calm - N/A   Clear
8:10 AM 55.4 °F 42.8 °F 63% 30.10 in 10.0 mi Calm Calm - N/A   Clear
8:30 AM 57.2 °F 42.8 °F 59% 30.10 in 10.0 mi Calm Calm - N/A   Clear
8:50 AM 59.0 °F 42.8 °F 55% 30.11 in 10.0 mi Calm Calm - N/A   Clear
9:10 AM 60.8 °F 42.8 °F 52% 30.10 in 10.0 mi Calm Calm - N/A   Clear
9:30 AM 60.8 °F 42.8 °F 52% 30.10 in 10.0 mi Calm Calm - N/A   Clear
9:50 AM 62.6 °F 42.8 °F 48% 30.10 in 10.0 mi Calm Calm - N/A   Clear
10:10 AM 64.4 °F 44.6 °F 49% 30.10 in 10.0 mi West 3.5 mph - N/A   Clear
10:30 AM 64.4 °F 44.6 °F 49% 30.10 in 10.0 mi West 3.5 mph - N/A   Clear
10:50 AM 64.4 °F 46.4 °F 52% 30.10 in 10.0 mi West 5.8 mph - N/A   Clear
11:10 AM 64.4 °F 46.4 °F 52% 30.10 in 10.0 mi NW 6.9 mph - N/A   Clear
11:30 AM 64.4 °F 48.2 °F 56% 30.09 in 10.0 mi West 5.8 mph - N/A   Clear
11:50 AM 66.2 °F 48.2 °F 52% 30.08 in 10.0 mi WNW 5.8 mph - N/A   Clear
12:10 PM 66.2 °F 48.2 °F 52% 30.07 in 10.0 mi NW 5.8 mph - N/A   Clear
12:30 PM 66.2 °F 48.2 °F 52% 30.06 in 10.0 mi WNW 8.1 mph - N/A   Clear
12:50 PM 66.2 °F 48.2 °F 52% 30.06 in 10.0 mi NW 5.8 mph - N/A   Clear
1:10 PM 66.2 °F 46.4 °F 49% 30.06 in 10.0 mi NNW 3.5 mph - N/A   Clear
1:30 PM 66.2 °F 48.2 °F 52% 30.05 in 10.0 mi NW 3.5 mph - N/A   Clear
1:50 PM 66.2 °F 46.4 °F 49% 30.05 in 10.0 mi WNW 8.1 mph - N/A   Clear
2:10 PM 66.2 °F 46.4 °F 49% 30.04 in 10.0 mi NW 5.8 mph - N/A   Clear
2:30 PM 66.2 °F 48.2 °F 52% 30.04 in 10.0 mi WNW 6.9 mph - N/A   Clear
2:50 PM 66.2 °F 48.2 °F 52% 30.04 in 10.0 mi NW 4.6 mph - N/A   Clear
3:10 PM 66.2 °F 48.2 °F 52% 30.03 in 10.0 mi WNW 6.9 mph - N/A   Clear
3:30 PM 64.4 °F 50.0 °F 59% 30.03 in 10.0 mi NW 8.1 mph - N/A   Clear
3:50 PM 64.4 °F 51.8 °F 64% 30.03 in 10.0 mi WNW 8.1 mph - N/A   Clear
4:10 PM 62.6 °F 50.0 °F 63% 30.03 in 10.0 mi NW 5.8 mph - N/A   Clear
4:30 PM 62.6 °F 48.2 °F 59% 30.03 in 10.0 mi WNW 6.9 mph - N/A   Clear
4:50 PM 60.8 °F 48.2 °F 63% 30.03 in 10.0 mi NW 5.8 mph - N/A   Clear
5:10 PM 59.0 °F 48.2 °F 67% 30.03 in 10.0 mi NW 3.5 mph - N/A   Clear
5:50 PM 57.2 °F 46.4 °F 67% 30.03 in 10.0 mi Calm Calm - N/A   Clear
6:10 PM 55.4 °F 46.4 °F 72% 30.03 in 10.0 mi Calm Calm - N/A   Clear
6:30 PM 51.8 °F 46.4 °F 82% 30.03 in 10.0 mi Calm Calm - N/A   Clear
6:50 PM 51.8 °F 46.4 °F 82% 30.02 in 10.0 mi Calm Calm - N/A   Clear
7:10 PM 50.0 °F 46.4 °F 87% 30.02 in 10.0 mi Calm Calm - N/A   Clear
7:30 PM 51.8 °F 46.4 °F 82% 30.02 in 10.0 mi Calm Calm - N/A   Clear
7:50 PM 50.0 °F 46.4 °F 87% 30.02 in 10.0 mi Calm Calm - N/A   Clear
8:10 PM 50.0 °F 46.4 °F 87% 30.03 in 10.0 mi Calm Calm - N/A   Clear
8:30 PM 51.8 °F 48.2 °F 88% 30.02 in 10.0 mi Calm Calm - N/A   Clear
8:50 PM 48.2 °F 46.4 °F 93% 30.02 in 10.0 mi Calm Calm - N/A   Clear
9:10 PM 48.2 °F 46.4 °F 93% 30.03 in 10.0 mi Calm Calm - N/A   Clear
9:30 PM 46.4 °F 44.6 °F 93% 30.03 in 10.0 mi Calm Calm - N/A   Clear
9:50 PM 48.2 °F 44.6 °F 87% 30.02 in 10.0 mi East 5.8 mph - N/A   Clear
10:10 PM 51.8 °F 44.6 °F 76% 30.02 in 10.0 mi Calm Calm - N/A   Clear
10:30 PM 48.2 °F 42.8 °F 82% 30.03 in 10.0 mi Calm Calm - N/A   Clear
10:50 PM 46.4 °F 42.8 °F 87% 30.03 in 10.0 mi Calm Calm - N/A   Clear
11:10 PM 46.4 °F 42.8 °F 87% 30.03 in 10.0 mi Calm Calm - N/A   Clear
11:30 PM 48.2 °F 41.0 °F 76% 30.03 in 10.0 mi Calm Calm - N/A   Clear
11:50 PM 48.2 °F 39.2 °F 71% 30.03 in 10.0 mi Calm Calm - N/A   Clear